Location: ??????
(30.5519°N, 47.7720°E)
Time: 08:54:42
(UTC+00:00)

USA 267 - Visible Passes

Search period start: 09 May 2021 00:00
Search period end: 19 May 2021 00:00
Orbit: 1099 x 1108 km, 123.0° (Epoch: 20 March)

Date Brightness Start Highest point End Pass type
(mag) Time Alt. Az. Time Alt. Az. Time Alt. Az.
09 May 3.7 16:29:14 10° SSE 16:35:41 60° SW 16:42:10 10° NW visible
10 May 3.4 15:46:32 10° SE 15:53:00 66° NE 15:59:30 10° NW visible
10 May 4.8 17:32:01 14° S 17:36:10 26° WSW 17:41:28 10° WNW visible
11 May 3.6 16:47:41 14° SSE 16:53:15 60° SW 16:59:44 10° NW visible
12 May 3.4 16:04:06 10° SE 16:10:34 66° NE 16:17:04 10° NW visible
12 May 4.7 17:50:42 19° SSW 17:53:44 26° WSW 17:59:00 10° WNW visible
13 May 3.6 17:06:21 21° SSE 17:10:49 59° SW 17:17:18 10° NW visible
14 May 3.4 16:21:58 12° SE 16:28:08 67° NE 16:34:38 10° NW visible
14 May 4.7 18:09:20 22° SSW 18:11:18 25° WSW 18:16:33 10° WNW visible
15 May 3.6 17:24:55 28° SSE 17:28:23 59° SW 17:34:52 10° NW visible
16 May 3.4 16:40:29 17° SE 16:45:42 67° NE 16:52:12 10° NW visible
16 May 4.6 18:27:50 24° SW 18:28:52 25° WSW 18:34:06 10° WNW visible
17 May 4.3 15:57:31 10° E 16:03:16 34° NE 16:09:02 10° NNW visible
17 May 3.5 17:43:24 36° S 17:45:57 58° SW 17:52:25 10° NW visible
18 May 3.4 16:58:56 23° ESE 17:03:15 68° NE 17:09:47 10° NW visible
18 May 4.6 18:46:17 25° SW 18:46:26 25° WSW 18:51:39 10° WNW visible
